Weather History for Council Bluffs, IA

Change the Weather History Date:

Saturday, August 24, 2013

  Actual Average Record
Temperature  
Mean Temperature 80 °F -  
Max Temperature 89 °F 82 °F 98 °F (2003)
Min Temperature 71 °F 63 °F 62 °F (1999)
Cooling Degree Days 15    
Growing Degree Days 30 (Base 50)    
Moisture  
Dew Point 72 °F    
Average Humidity 79    
Maximum Humidity 94    
Minimum Humidity 59    
Precipitation  
Precipitation 0.00 in - - ()
Sea Level Pressure  
Sea Level Pressure 30.05 in    
Wind  
Wind Speed 11 mph (SSE)    
Max Wind Speed 21 mph    
Max Gust Speed 26 mph    
Visibility 10 miles    
Events      
Averages and records for this station are not official NWS values.
T = Trace of Precipitation, MM = Missing Value Source: NWS Daily Summary

Daily Weather History Graph

Daily Weather History Graph

Search for Another Location

Airport:

Trip Planner

Search our weather history database for the weather conditions in past years. The results will help you decide how hot, cold, wet, or windy it might be!

Date:

Astronomy

Aug. 24, 2013 Rise Set
Actual Time 6:41 AM CDT 8:08 PM CDT
Civil Twilight 6:12 AM CDT 8:36 PM CDT
Nautical Twilight 5:37 AM CDT 9:11 PM CDT
Astronomical Twilight 5:01 AM CDT 9:48 PM CDT
Moon 9:59 PM CDT (8/24) 10:45 AM CDT (8/24)
Length of Visible Light 14h 24m
Length of Day
13h 26m
Waning Gibbous, 84% of the Moon is Illuminated
Aug 24
Waning Gibbous
Aug 28
Last Quarter
Sep 5
New
Sep 12
First Quarter
Sep 19
Full

Hourly Weather History & Observations

Time (CDT) Temp. Heat Index Dew Point Humidity Pressure Visibility Wind Dir Wind Speed Gust Speed Precip Events Conditions
12:15 AM 73.4 °F - 69.8 °F 88% 30.03 in 10.0 mi SSE 8.1 mph - N/A   Clear
12:35 AM 73.4 °F - 69.8 °F 88% 30.03 in 10.0 mi SSE 9.2 mph - N/A   Clear
12:55 AM 73.4 °F - 69.8 °F 88% 30.03 in 10.0 mi SSE 9.2 mph - N/A   Clear
1:15 AM 73.4 °F - 69.8 °F 88% 30.03 in 10.0 mi SSE 8.1 mph - N/A   Clear
1:35 AM 73.4 °F - 69.8 °F 88% 30.03 in 10.0 mi SSE 9.2 mph - N/A   Clear
1:55 AM 73.4 °F - 69.8 °F 88% 30.03 in 10.0 mi South 9.2 mph - N/A   Clear
2:15 AM 73.4 °F - 69.8 °F 88% 30.04 in 10.0 mi South 8.1 mph - N/A   Clear
2:35 AM 73.4 °F - 69.8 °F 88% 30.04 in 10.0 mi South 8.1 mph - N/A   Clear
2:55 AM 73.4 °F - 69.8 °F 88% 30.04 in 10.0 mi South 8.1 mph - N/A   Clear
3:15 AM 73.4 °F - 69.8 °F 88% 30.04 in 10.0 mi South 8.1 mph - N/A   Clear
3:35 AM 73.4 °F - 69.8 °F 88% 30.04 in 10.0 mi South 9.2 mph - N/A   Clear
3:55 AM 73.4 °F - 69.8 °F 88% 30.04 in 10.0 mi South 9.2 mph - N/A   Clear
4:15 AM 73.4 °F - 69.8 °F 88% 30.04 in 10.0 mi South 9.2 mph - N/A   Partly Cloudy
4:35 AM 73.4 °F - 69.8 °F 88% 30.05 in 10.0 mi South 9.2 mph - N/A   Clear
4:55 AM 73.4 °F - 69.8 °F 88% 30.05 in 10.0 mi South 9.2 mph - N/A   Clear
5:15 AM 73.4 °F - 69.8 °F 88% 30.05 in 10.0 mi SSE 9.2 mph - N/A   Partly Cloudy
5:35 AM 71.6 °F - 69.8 °F 94% 30.06 in 9.0 mi SSE 8.1 mph - N/A   Light Drizzle
5:55 AM 71.6 °F - 69.8 °F 94% 30.07 in 8.0 mi SSE 10.4 mph - N/A   Light Drizzle
6:15 AM 71.6 °F - 69.8 °F 94% 30.07 in 10.0 mi SSE 8.1 mph - N/A   Mostly Cloudy
6:35 AM 71.6 °F - 69.8 °F 94% 30.07 in 10.0 mi SSE 10.4 mph - N/A   Overcast
6:55 AM 71.6 °F - 69.8 °F 94% 30.07 in 9.0 mi SSE 10.4 mph - N/A   Scattered Clouds
7:15 AM 71.6 °F - 69.8 °F 94% 30.08 in 10.0 mi SE 10.4 mph - N/A   Clear
7:35 AM 71.6 °F - 69.8 °F 94% 30.08 in 9.0 mi SSE 11.5 mph - N/A   Clear
7:55 AM 71.6 °F - 69.8 °F 94% 30.08 in 9.0 mi SSE 10.4 mph - N/A   Clear
8:15 AM 73.4 °F - 69.8 °F 88% 30.08 in 10.0 mi SSE 11.5 mph - N/A   Clear
8:35 AM 73.4 °F - 71.6 °F 94% 30.08 in 10.0 mi SSE 11.5 mph - N/A   Clear
8:55 AM 75.2 °F - 71.6 °F 89% 30.08 in 10.0 mi SSE 11.5 mph - N/A   Clear
9:15 AM 75.2 °F - 71.6 °F 89% 30.08 in 10.0 mi SSE 15.0 mph - N/A   Clear
9:35 AM 77.0 °F - 71.6 °F 83% 30.08 in 10.0 mi SSE 12.7 mph 20.7 mph N/A   Clear
9:55 AM 78.8 °F - 71.6 °F 78% 30.08 in 10.0 mi South 12.7 mph 19.6 mph N/A   Clear
10:15 AM 80.6 °F 85.4 °F 73.4 °F 79% 30.08 in 10.0 mi SSE 10.4 mph 16.1 mph N/A   Clear
10:35 AM 80.6 °F 85.4 °F 73.4 °F 79% 30.09 in 10.0 mi SSE 12.7 mph - N/A   Clear
10:55 AM 80.6 °F 85.4 °F 73.4 °F 79% 30.09 in 10.0 mi SSE 10.4 mph - N/A   Clear
11:15 AM 80.6 °F 85.4 °F 73.4 °F 79% 30.09 in 10.0 mi SSE 11.5 mph - N/A   Clear
11:35 AM 80.6 °F 85.4 °F 73.4 °F 79% 30.09 in 10.0 mi SSE 10.4 mph - N/A   Clear
11:55 AM 82.4 °F 88.2 °F 73.4 °F 74% 30.09 in 10.0 mi SSE 12.7 mph - N/A   Clear
12:15 PM 84.2 °F 92.3 °F 75.2 °F 74% 30.09 in 10.0 mi SSE 10.4 mph - N/A   Clear
12:35 PM 84.2 °F 92.3 °F 75.2 °F 74% 30.07 in 10.0 mi SSE 13.8 mph - N/A   Clear
12:55 PM 84.2 °F 90.9 °F 73.4 °F 70% 30.07 in 10.0 mi South 16.1 mph - N/A   Clear
1:15 PM 86.0 °F 93.4 °F 73.4 °F 66% 30.07 in 10.0 mi SSE 17.3 mph 23.0 mph N/A   Clear
1:35 PM 86.0 °F 93.4 °F 73.4 °F 66% 30.06 in 10.0 mi South 16.1 mph - N/A   Clear
1:55 PM 86.0 °F 93.4 °F 73.4 °F 66% 30.06 in 10.0 mi SSE 17.3 mph - N/A   Clear
2:15 PM 86.0 °F 95.1 °F 75.2 °F 70% 30.05 in 10.0 mi SSE 15.0 mph 20.7 mph N/A   Clear
2:35 PM 87.8 °F 97.6 °F 75.2 °F 66% 30.05 in 10.0 mi SSE 17.3 mph - N/A   Clear
2:55 PM 89.6 °F 99.8 °F 75.2 °F 62% 30.05 in 10.0 mi South 16.1 mph - N/A   Clear
3:15 PM 89.6 °F 98.2 °F 73.4 °F 59% 30.04 in 10.0 mi South 17.3 mph 25.3 mph N/A   Clear
3:35 PM 87.8 °F 95.6 °F 73.4 °F 62% 30.04 in 10.0 mi South 20.7 mph - N/A   Clear
3:55 PM 89.6 °F 98.2 °F 73.4 °F 59% 30.03 in 10.0 mi South 19.6 mph 26.5 mph N/A   Clear
4:15 PM 89.6 °F 99.8 °F 75.2 °F 62% 30.03 in 10.0 mi SSE 17.3 mph 26.5 mph N/A   Clear
4:35 PM 89.6 °F 99.8 °F 75.2 °F 62% 30.02 in 10.0 mi South 20.7 mph - N/A   Clear
4:55 PM 89.6 °F 99.8 °F 75.2 °F 62% 30.02 in 10.0 mi SSE 20.7 mph 26.5 mph N/A   Clear
5:15 PM 87.8 °F 97.6 °F 75.2 °F 66% 30.02 in 10.0 mi South 18.4 mph 25.3 mph N/A   Clear
5:35 PM 87.8 °F 97.6 °F 75.2 °F 66% 30.02 in 10.0 mi South 16.1 mph 23.0 mph N/A   Clear
5:55 PM 87.8 °F 97.6 °F 75.2 °F 66% 30.02 in 10.0 mi South 13.8 mph 21.9 mph N/A   Clear
6:15 PM 87.8 °F 97.6 °F 75.2 °F 66% 30.02 in 10.0 mi South 10.4 mph 19.6 mph N/A   Clear
6:35 PM 86.0 °F 93.4 °F 73.4 °F 66% 30.02 in 10.0 mi South 17.3 mph - N/A   Clear
6:55 PM 86.0 °F 93.4 °F 73.4 °F 66% 30.02 in 10.0 mi South 16.1 mph - N/A   Clear
7:15 PM 86.0 °F 93.4 °F 73.4 °F 66% 30.02 in 10.0 mi South 12.7 mph - N/A   Clear
7:35 PM 84.2 °F 90.9 °F 73.4 °F 70% 30.03 in 10.0 mi SSE 11.5 mph - N/A   Clear
7:55 PM 82.4 °F 88.2 °F 73.4 °F 74% 30.03 in 10.0 mi SSE 12.7 mph - N/A   Clear
8:15 PM 82.4 °F 88.2 °F 73.4 °F 74% 30.03 in 10.0 mi SSE 11.5 mph - N/A   Clear
8:35 PM 80.6 °F 85.4 °F 73.4 °F 79% 30.04 in 10.0 mi SSE 11.5 mph - N/A   Clear
8:55 PM 80.6 °F 85.4 °F 73.4 °F 79% 30.04 in 10.0 mi SSE 10.4 mph - N/A   Clear
9:15 PM 80.6 °F 85.4 °F 73.4 °F 79% 30.06 in 10.0 mi SSE 10.4 mph - N/A   Clear
9:35 PM 78.8 °F - 73.4 °F 83% 30.06 in 10.0 mi SSE 11.5 mph - N/A   Clear
9:55 PM 78.8 °F - 73.4 °F 83% 30.07 in 10.0 mi SSE 13.8 mph 20.7 mph N/A   Clear
10:15 PM 78.8 °F - 73.4 °F 83% 30.06 in 10.0 mi SSE 12.7 mph 19.6 mph N/A   Clear
10:35 PM 78.8 °F - 71.6 °F 78% 30.07 in 10.0 mi South 13.8 mph 19.6 mph N/A   Clear
10:55 PM 78.8 °F - 71.6 °F 78% 30.07 in 10.0 mi SSE 12.7 mph - N/A   Clear
11:15 PM 78.8 °F - 71.6 °F 78% 30.07 in 10.0 mi South 10.4 mph 16.1 mph N/A   Clear
11:35 PM 77.0 °F - 71.6 °F 83% 30.08 in 10.0 mi South 9.2 mph - N/A   Clear
11:55 PM 77.0 °F - 71.6 °F 83% 30.08 in 10.0 mi South 8.1 mph - N/A   Clear